User: anonymous   Login
Location: Unspecified
(0.0000°N, 0.0000°E)
Time: 12:34:29
(UTC+00:00)
Language:

COSMOS 2378 - Orbit

View from above orbital plane
View from above orbital plane
View from above satellite
View from above satellite

Ground track
Ground track

The orbit data is extracted from the following two-line orbital elements,

1 26818U 01023A   18169.56728917 +.00000060 +00000-0 +47847-4 0  9991
2 26818 082.9290 225.9031 0031621 258.9717 100.7879 13.73927597853844
Epoch (UTC): 18 June 2018 13:36:53
Eccentricity: 0.0031621
inclination: 82.9290°
perigee height: 962 km
apogee height: 1009 km
right ascension of ascending node: 225.9031°
argument of perigee: 258.9717°
revolutions per day: 13.73927597
mean anomaly at epoch: 100.7879°
orbit number at epoch: 85384

The dashed part of the orbit path shows where the satellite is in the earth's shadow,  

DLR